Regional Weather Roundup
Issued by NWS Wakefield, VA

Home | Current Version | Previous Version | Text Only | Print | Product List | Glossary On
Versions: 1 2 3 4 5 6 7 8 9 10 11 12 13 14 15 16 17 18 19 20 21 22 23 24 25 26 27
000
ASUS41 KAKQ 251616
RWRAKQ

REGIONAL WEATHER ROUNDUP
NATIONAL WEATHER SERVICE WAKEFIELD VA
1200 PM EDT MON SEP 25 2017

Note: "fair" indicates few or no clouds below 12,000 feet with no
significant weather and/or obstructions to visibility. * = Denotes
station may not report precipitation (e.g., rain,snow,etc.),
thunder or fog.

VAZ042-051-052>054-056-251700-
NORTHERN VIRGINIA

CITY           SKY/WX    TMP DP  RH WIND       PRES   REMARKS
WASH NATIONAL  PTSUNNY   86  67  52 CALM      30.05F
DULLES         SUNNY     85  68  56 N6        30.06F
FORT BELVOIR   SUNNY     85  66  52 SE6       30.05F
QUANTICO       MOSUNNY   83  72  69 E6        30.05F
FREDERICKSBRG* SUNNY     84  66  53 NE5       30.04S
STAFFORD*      SUNNY     85  63  48 E7        30.09S
WARRENTON      SUNNY     87  63  44 NE5       30.05F
CULPEPER*      SUNNY     86  68  54 N8        30.06F
MANASSAS*      SUNNY     85  68  56 NE3       30.06F
LEESBURG*      SUNNY     82  70  65 CALM      30.08S
WINCHESTER     SUNNY     81  64  57 E3        30.08F
FRONT ROYAL*   SUNNY     81  68  65 CALM      30.08F
LURAY*         SUNNY     81  64  57 N5        30.08F
$$

VAZ048-049-060>072-079>083-251700-
CENTRAL AND SOUTH CENTRAL VIRGINIA

CITY           SKY/WX    TMP DP  RH WIND       PRES   REMARKS
RICHMOND       PTSUNNY   84  65  52 NE14G22   30.03F
CHESTERFIELD*  NOT AVBL
PETERSBURG*    SUNNY     81  62  52 NE10G17   30.03F
HANOVER        SUNNY     84  63  49 VRB7      30.05S
TAPPAHANNOCK*  SUNNY     85  54  34 NE8       30.05S
QUINTON*       FAIR      81  67  64 E8        30.02F
CHARLOTTSVILLE MOSUNNY   83  66  56 E5        30.07S
GORDONSVILLE*  MOSUNNY   83  68  60 CALM      30.06S
ORANGE*        SUNNY     81  64  57 E5        30.06S
LOUISA*          N/A     84  66  54 E7        30.05S
BUMPASS*       FAIR      83  67  58 SE5       30.05S
FARMVILLE*     MOSUNNY   86  67  53 NE12      30.03F
CREWE*         FAIR      82  66  59 N5        30.03F
FORT PICKETT*  FAIR      80  63  55 NE7G16    30.03F
CHASE CITY*    FAIR      80  63  55 N6        30.03F
CLARKSVILLE*   FAIR      81  61  50 NE6       30.02F
SOUTH HILL*    CLOUDY    79  66  64 N10       30.07F
LAWRENCEVILLE* FAIR      78  65  63 NE3       30.01F
EMPORIA*       PTSUNNY   77  68  73 N9        30.02F
$$

VAZ088>098-251700-
SOUTHEAST VIRGINIA

CITY           SKY/WX    TMP DP  RH WIND       PRES   REMARKS
NORFOLK        CLOUDY    75  69  81 NE12      30.01S
VIRGINIA BEACH CLOUDY    74  67  78 NE13      30.00S
NORFOLK NAVAL  CLOUDY    76  68  76 NE10      30.02F
WEST POINT*    SUNNY     82  63  51 NE9       30.04S
SALUDA*        FAIR      77  71  81 E8        30.03S
NEWPORT NEWS   PTSUNNY   76  68  76 E14       30.02S
LANGLEY AFB    CLOUDY    77  70  78 NE15      30.01S
FORT EUSTIS    MOSUNNY   82  69  64 E10       30.00S
WILLIAMSBURG*  SUNNY     84  70  61 CALM      30.03S
HR EXEC AP*    CLOUDY    75  69  81 NE7       30.01F
FRANKLIN*      CLOUDY    76  67  73 NE13G21   30.02R
US460-WAKEFLD  MOSUNNY   80  69  69 NE8       30.01F
$$

VAZ020-022-025-037-045-251700-
WEST CENTRAL AND SOUTHWEST VIRGINIA

CITY           SKY/WX    TMP DP  RH WIND       PRES   REMARKS
STAUNTON*      PTSUNNY   77  65  65 CALM      30.12F
WAYNESBORO*    PTSUNNY   77  67  71 NW6       30.12S
HOT SPRINGS VA MOSUNNY   70  58  66 E7        30.23S
LYNCHBURG      MOSUNNY   79  64  60 NE7       30.08S
DANVILLE       CLOUDY    81  66  60 NE8       30.04F
SOUTH BOSTON*  FAIR      80  62  55 NE5       30.03F
MARTINSVILLE   MOSUNNY   78  64  60 N7        30.10S
ROANOKE        CLOUDY    81  64  56 NE7       30.11F
BLACKSBURG     CLOUDY    74  64  71 NE6       30.17F
DUBLIN*        MOSUNNY   75  63  67 NE6       30.16F
MARION*        MOSUNNY   76  59  55 E5        30.19S
HILLSVILLE*    CLOUDY    70  59  66 CALM      30.17R
RICHLANDS*     FAIR      76  58  53 E3        30.17S
WISE*          MOSUNNY   75  57  53 S5        30.17F
ABINGDON*      PTSUNNY   78  61  54 CALM      30.13F
$$

MDZ021>025-VAZ099-100-251700-
SOUTHERN MARYLAND AND THE DELMARVA PENINSULA

CITY           SKY/WX    TMP DP  RH WIND       PRES   REMARKS
PATUXENT RIVER MOSUNNY   82  62  50 N6        30.04F
BAY BRIDGE APT SUNNY     82  68  61 NW6       30.05F
LEONARDTOWN    SUNNY     79  59  50 E3        30.06
DOVER          MOSUNNY   82  59  45 E6        30.04S
GEORGETOWN     SUNNY     83  66  56 NE12      30.05S
EASTON         NOT AVBL
CAMBRIDGE      SUNNY     82  64  54 VRB3      30.04F
SALISBURY      SUNNY     83  70  64 NE10      30.03F
OCEAN CITY     CLOUDY    72  69  90 E8        30.05F
WALLOPS ISLAND PTSUNNY   74  70  87 NE13      30.04F
ACCOMACK*      MOSUNNY   77  71  80 E8        30.03R
$$

NCZ012>017-030>032-251700-
NORTH CENTRAL AND EASTERN NORTH CAROLINA

CITY           SKY/WX    TMP DP  RH WIND       PRES   REMARKS
ROANOKE RAPIDS CLOUDY    77  68  73 E8        30.00F
RALEIGH        PTSUNNY   79  66  64 VRB7      30.00F
ELIZABETH CITY CLOUDY    76  71  85 NE17      29.98S
AHOSKIE*       CLOUDY    74  68  80 NE8       30.00F
EDENTON*       CLOUDY    80  71  74 NE13      29.98F
CURRITUCK*     CLOUDY    74  69  83 NE12      30.00S
KILL DEVIL HLS CLOUDY    73  67  82 NE7G20    29.96R
MANTEO         CLOUDY    73  69  86 NE18      29.96F
CAPE HATTERAS  CLOUDY    80  73  79 NE13G25   29.90F
TARBORO*       NOT AVBL
GOLDSBORO      PTSUNNY   77  73  88 N9        29.95S
WASHINGTON     CLOUDY    77  69  75 NE12G20   29.96S
GREENVILLE     CLOUDY    77  70  78 NE9G16    29.99S
NEW BERN       CLOUDY    81  71  71 NE14      29.94F
WILMINGTON     CLOUDY    79  70  74 N12       29.92F
$$

VAZ048-251700-
ELSEWHERE

CITY           SKY/WX    TMP DP  RH WIND       PRES   REMARKS
HARRISBURG PA  MOSUNNY   86  72  62 SW5       30.06F
BALTIMORE      PTSUNNY   86  68  54 VRB5      30.05F
ANNAPOLIS      SUNNY     83  70  64 SE6       30.05F
ANDREWS AFB    SUNNY     83  65  54 E5        30.05F
PHILADELPHIA   MOSUNNY   85  65  51 SE3       30.05F
HENDERSON NC   PTSUNNY   76  60  56 NE12G18   30.02F
GREENSBORO     CLOUDY    79  64  60 NE14      30.05F
ROCKY MOUNT    CLOUDY    75  68  78 NE13      29.99F
$$

VAZ100-251700-
MARINE

STATION/POSITION TIME  TEMP    WIND        PRES    WAVE   SWELL
                       AIR SEA DIR/SP/G            HT/PER HT/PER
                 (UTC) (F)     (DEG/KT/KT) (MB)    (FT/S) (FT/S)
BRANDYWINE LGT   1542   77      CALM  /  1 1018.1S
CAPE MAY NJ      1542   77 75  100/  8/ 15 1017.2R
LEWES DE         1542   71 74   80/  7/  9 1017.6R
15NM E FENWICK I 1550   68 72   30/  8/ 10 1017.7S   4/14   3/14
OCEAN-CITY-INLET 1542   70 74   90/  4/  7 1017.9F
WACHAPREAGUE VA  1542   72 76   50/ 13/ 16 1016.8R
THOMAS POINT MD  1600   76 77  300/  2/  2   N/A
GOOSES REEF MD   1600   77 77   10/  6/  6 1018.1    0
COVE POINT MD    1542   76     340/  5/  6 1018.2S
SOLOMONS ISLAND  1542   76 77  120/  4/  5 1016.9F
BISHOPS HEAD MD  1542   77 77   80/  2/  4 1017.4F
PINEY POINT MD   1548           70/  4/  5   N/A
POTOMAC MD       1600   74 77   80/  6/  8 1016.5    1
CAMBRIDGE MD     1542   83 78              1018.2F
LEWISETTA VA     1542   74 78   90/  5/  6 1017.1F
RAPPAHANNOCK LGT 1536           10/  7/  9 1017.3S
STINGRAY PT      1600   73 77   80/ 10/ 12 1017.2    1/ 2
YORK RVR RNG VA  1536   74      70/ 12/ 13 1017.1S
YORKTOWN VA      1536   74 77   80/ 12/ 14 1016.2F
JAMESTOWN VA     1600      79   70/ 10/ 14   N/A     0
DOMINION TERM VA 1536   74      70/ 10/ 14 1016.5F
KIPTOPEKE VA     1536      76   70/ 11/ 18   N/A
CHES BAY BRIDGE  1536   72 76   60/ 15/ 18 1016.1S
CAPE HENRY VA    1536   71      50/ 17/ 21   N/A
WILLOUBY STN VA  1536   73      50/ 16/ 18 1016.3F
S CRANEY ISL VA  1536   73      60/ 12/ 18 1016.0S
CAPE HENRY BUOY  1600      74                N/A     5/14   3/14
64NM E OF VA BCH 1550   71 70   50/ 16/ 19 1015.0F  14/15  13/15
DUCK PIER NC     1536   72 76   40/ 21/ 24 1014.6F
44100 DUCK FRF   1535      74                N/A     7/12   5/12
44056 DUCK FRF   1600      75                N/A     8/14   5/14
OREGON INLET NC  1536   73 76   30/ 15/ 20 1013.9F
HATTERAS NC      1536   76 77   40/ 18/ 22 1012.5F
DIAMOND SHLS NC  1550   76 76   20/ 23/ 25 1010.8F  12/14  10/14
CAPE LOOKOUT NC  1600   77      30/ 25/ 29 1011.5F
$$




USA.gov is the U.S. government's official web portal to all federal, state and local government web resources and services.